YO3IEZ-WX Weather Reports


time (UTC)temp
C
wind
direction
speed
KPH
gust
KPH
rain 1hr
cm
rain 24hr
cm
rain mn
cm
humidity
%
barometer
mb
20260906053058 20 138 1.6 14.5 0.00 0.00 0.00 62 1009.4
20260906051604 19 130 9.7 20.9 0.00 0.00 0.00 63 1009.5
20260906050104 19 121 6.4 16.1 0.00 0.00 0.00 62 1009.3
20260906044549 18 123 11.3 19.3 0.00 0.00 0.00 62 1009.2
20260906043055 18 146 6.4 17.7 0.00 0.00 0.00 63 1008.9
20260906041554 18 111 6.4 17.7 0.00 0.00 0.00 63 1008.8
20260906040050 18 119 4.8 17.7 0.00 0.00 0.00 62 1008.5
20260906034605 18 0 3.2 19.3 0.00 0.00 0.00 64 1008.0
20260906033056 19 67 9.7 19.3 0.00 0.00 0.00 64 1008.0
20260906031555 19 118 6.4 20.9 0.00 0.00 0.00 64 1008.0
20260906030056 19 35 8.0 25.7 0.00 0.00 0.00 64 1007.9
20260906024555 20 88 11.3 27.4 0.00 0.00 0.00 64 1007.3
20260906023107 20 93 8.0 30.6 0.00 0.00 0.00 63 1007.1
20260906021558 20 11 8.0 22.5 0.00 0.00 0.00 63 1007.0
20260906020056 20 89 11.3 27.4 0.00 0.00 0.00 63 1006.6
20260906014559 20 89 8.0 27.4 0.00 0.00 0.00 64 1006.4
20260906013050 21 133 6.4 24.1 0.00 0.00 0.00 65 1006.4
20260906011604 21 80 9.7 30.6 0.00 0.00 0.00 64 1006.3
20260906010058 21 89 9.7 20.9 0.00 0.00 0.00 64 1005.8
20260906004601 21 134 8.0 24.1 0.00 0.00 0.00 62 1005.5
20260906003058 21 138 12.9 32.2 0.00 0.00 0.00 62 1005.3
20260906001555 21 68 8.0 27.4 0.00 0.00 0.00 62 1005.0
20260906000111 22 87 9.7 22.5 0.00 0.00 0.00 62 1005.1
20260905234550 22 130 12.9 24.1 0.00 0.00 0.00 62 1005.0
20260905233106 22 138 6.4 17.7 0.00 0.00 0.00 62 1004.9
20260905231555 22 88 6.4 22.5 0.00 0.00 0.00 61 1005.2
20260905230059 23 85 6.4 19.3 0.00 0.00 0.00 59 1004.9
20260905224559 24 84 4.8 14.5 0.00 0.00 0.00 55 1004.6
20260905223055 24 44 1.6 9.7 0.00 0.00 0.00 54 1004.5
20260905221604 25 344 6.4 12.9 0.00 0.00 0.00 52 1004.2
20260905220058 25 244 0.0 3.2 0.00 0.00 0.00 54 1004.2
20260905214554 24 0 0.0 0.0 0.00 0.00 0.00 54 1003.9
20260905213051 25 0 0.0 0.0 0.00 0.00 0.00 54 1003.9
20260905211608 25 242 0.0 3.2 0.00 0.00 0.00 53 1003.8
20260905210109 25 242 0.0 1.6 0.00 0.00 0.00 53 1003.9
20260905204553 25 0 0.0 0.0 0.00 0.00 0.00 53 1003.8
20260905203058 25 242 0.0 3.2 0.00 0.00 0.00 52 1003.8
20260905201557 25 242 0.0 4.8 0.00 0.00 0.00 50 1003.8
20260905194603 25 0 0.0 0.0 0.00 0.00 0.00 51 1003.8
20260905193100 26 0 0.0 3.2 0.00 0.00 0.00 50 1003.8
20260905191555 26 242 1.6 4.8 0.00 0.00 0.00 48 1003.7
20260905190059 26 0 0.0 3.2 0.00 0.00 0.00 49 1003.6
20260905184607 26 0 0.0 3.2 0.00 0.00 0.00 48 1003.6
20260905183115 26 0 0.0 0.0 0.00 0.00 0.00 48 1003.7
20260905181555 26 0 0.0 0.0 0.00 0.00 0.00 48 1003.8
20260905180050 27 0 0.0 0.0 0.00 0.00 0.00 47 1003.7
20260905174557 27 0 0.0 1.6 0.00 0.00 0.00 44 1003.6
20260905173053 28 0 0.0 0.0 0.00 0.00 0.00 43 1003.6
20260905171553 29 0 0.0 0.0 0.00 0.00 0.00 42 1003.6
20260905170100 29 0 0.0 1.6 0.00 0.00 0.00 40 1003.5
20260905164555 30 0 0.0 3.2 0.00 0.00 0.00 38 1003.5
20260905163057 31 0 0.0 4.8 0.00 0.00 0.00 36 1003.4
20260905161548 31 0 0.0 8.0 0.00 0.00 0.00 35 1003.5
20260905160059 31 243 3.2 12.9 0.00 0.00 0.00 35 1003.5
20260905154553 31 238 3.2 12.9 0.00 0.00 0.00 34 1003.4
20260905153105 32 240 4.8 11.3 0.00 0.00 0.00 32 1003.5
20260905151551 32 254 3.2 12.9 0.00 0.00 0.00 32 1003.7
20260905150057 32 249 3.2 16.1 0.00 0.00 0.00 32 1003.8
20260905144556 32 237 6.4 19.3 0.00 0.00 0.00 31 1003.8
20260905143053 33 250 6.4 14.5 0.00 0.00 0.00 30 1003.8
20260905141609 33 234 1.6 17.7 0.00 0.00 0.00 31 1003.8
20260905140103 33 238 8.0 17.7 0.00 0.00 0.00 32 1004.0
20260905134552 33 248 4.8 16.1 0.00 0.00 0.00 32 1004.0
20260905133057 32 256 6.4 17.7 0.00 0.00 0.00 33 1004.2
20260905131613 33 210 3.2 16.1 0.00 0.00 0.00 33 1004.4
20260905130051 32 294 4.8 19.3 0.00 0.00 0.00 35 1004.4
20260905124548 32 223 6.4 17.7 0.00 0.00 0.00 34 1004.6
20260905123056 32 287 8.0 16.1 0.00 0.00 0.00 35 1004.9
20260905121553 32 297 3.2 14.5 0.00 0.00 0.00 35 1005.2
20260905120058 32 252 6.4 22.5 0.00 0.00 0.00 37 1005.5
20260905114557 32 252 4.8 20.9 0.00 0.00 0.00 37 1005.6
20260905113056 32 246 6.4 17.7 0.00 0.00 0.00 37 1005.7
20260905111550 31 243 8.0 17.7 0.00 0.00 0.00 38 1005.7
20260905110047 31 213 8.0 19.3 0.00 0.00 0.00 37 1005.8
20260905104558 31 290 8.0 22.5 0.00 0.00 0.00 37 1005.9
20260905103056 30 256 9.7 20.9 0.00 0.00 0.00 38 1006.0
20260905101555 30 264 11.3 24.1 0.00 0.00 0.00 38 1006.1
20260905100119 30 297 6.4 20.9 0.00 0.00 0.00 38 1006.2
20260905094555 30 232 6.4 16.1 0.00 0.00 0.00 38 1006.2
20260905093051 30 235 8.0 20.9 0.00 0.00 0.00 39 1006.3
20260905091559 29 290 8.0 16.1 0.00 0.00 0.00 40 1006.4
20260905090122 29 275 11.3 24.1 0.00 0.00 0.00 42 1006.5
20260905084553 28 243 3.2 12.9 0.00 0.00 0.00 44 1006.6
20260905083052 27 0 4.8 14.5 0.00 0.00 0.00 47 1006.7
20260905081602 27 216 1.6 6.4 0.00 0.00 0.00 50 1006.9
20260905080058 26 240 4.8 12.9 0.00 0.00 0.00 52 1007.0
20260905074604 26 240 4.8 9.7 0.00 0.00 0.00 53 1006.9
20260905073105 25 296 0.0 4.8 0.00 0.00 0.00 55 1006.9
20260905071557 24 289 3.2 12.9 0.00 0.00 0.00 57 1006.9
20260905070059 23 281 4.8 11.3 0.00 0.00 0.00 57 1006.8
20260905064553 22 293 8.0 16.1 0.00 0.00 0.00 60 1006.8
20260905063058 22 294 3.2 8.0 0.00 0.00 0.00 61 1006.6
20260905061557 22 240 3.2 9.7 0.00 0.00 0.00 65 1006.7
20260905060056 22 284 1.6 6.4 0.00 0.00 0.00 65 1006.5
20260905054551 21 294 1.6 4.8 0.00 0.00 0.00 68 1006.4